Crosby, ND

6:55 AM CDT on April 24, 2018 (GMT -0500)
Crosby

Weather History for KD50 - March, 2012

Change the Weather History Date:

Monday, March 26, 2012

  Actual Average (KISN) Record (KISN)
Temperature  
Mean Temperature 42 °F -  
Max Temperature 51 °F 46 °F 74 °F (1999)
Min Temperature 32 °F 22 °F -15 °F (1914)
Degree Days  
Heating Degree Days 24    
Moisture  
Dew Point 32 °F    
Average Humidity 72    
Maximum Humidity 87    
Minimum Humidity 58    
Precipitation  
Precipitation 0.00 in - - ()
Sea Level Pressure  
Sea Level Pressure 29.77 in    
Wind  
Wind Speed 18 mph (SE)    
Max Wind Speed 25 mph    
Max Gust Speed 31 mph    
Visibility 10 miles    
Events      
Averages and records for this station are not official NWS values.
T = Trace of Precipitation, MM = Missing Value Source: NWS Daily Summary

Daily Weather History Graph

Daily Weather History Graph

Search for Another Location

Airport or City:

Astronomy

Mar. 26, 2012 Rise Set
Actual Time 7:42 AM CDT 8:16 PM CDT
Civil Twilight 7:10 AM CDT 8:47 PM CDT
Nautical Twilight 6:32 AM CDT 9:25 PM CDT
Astronomical Twilight 5:53 AM CDT 10:05 PM CDT
Moon 9:10 AM CDT (3/26) No Moon Set
Length of Visible Light 13h 37m
Length of Day
12h 33m
Waxing Crescent, 15% of the Moon is Illuminated
Mar 26
Waxing Crescent
Mar 30
First Quarter
Apr 6
Full
Apr 13
Last Quarter
Apr 21
New

Hourly Weather History & Observations

Time (CDT) Temp. Windchill Dew Point Humidity Pressure Visibility Wind Dir Wind Speed Gust Speed Precip Events Conditions
12:15 AM 32.0 °F 19.2 °F 26.6 °F 80% 30.02 in 10.0 mi ESE 23.0 mph 31.1 mph N/A   Unknown
12:35 AM 32.0 °F 19.5 °F 26.6 °F 80% 30.01 in 10.0 mi ESE 21.9 mph 31.1 mph N/A   Unknown
12:55 AM 32.0 °F 18.6 °F 26.6 °F 80% 30.01 in 10.0 mi SE 25.3 mph 31.1 mph N/A   Unknown
1:15 AM 32.0 °F 19.5 °F 26.6 °F 80% 30.01 in 10.0 mi SE 21.9 mph 29.9 mph N/A   Unknown
1:35 AM 32.0 °F 19.8 °F 26.6 °F 80% 30.01 in 10.0 mi SE 20.7 mph 27.6 mph N/A   Unknown
1:55 AM 32.0 °F 20.8 °F 26.6 °F 80% 30.00 in 10.0 mi SE 17.3 mph 27.6 mph N/A   Unknown
2:15 AM 32.0 °F 20.5 °F 26.6 °F 80% 30.00 in 10.0 mi SE 18.4 mph 23.0 mph N/A   Unknown
2:35 AM 32.0 °F 22.1 °F 26.6 °F 80% 30.00 in 10.0 mi SE 13.8 mph - N/A   Unknown
2:55 AM 32.0 °F 22.5 °F 26.6 °F 80% 30.00 in 10.0 mi ESE 12.7 mph - N/A   Unknown
3:15 AM 32.0 °F 21.6 °F 26.6 °F 80% 29.98 in 10.0 mi ESE 15.0 mph 19.6 mph N/A   Unknown
3:35 AM 32.0 °F 22.1 °F 26.6 °F 80% 29.98 in 10.0 mi ESE 13.8 mph - N/A   Unknown
3:55 AM 32.0 °F 22.5 °F 26.6 °F 80% 29.96 in 10.0 mi ESE 12.7 mph - N/A   Unknown
4:15 AM 32.0 °F 22.5 °F 28.4 °F 87% 29.94 in 10.0 mi ESE 12.7 mph - N/A   Unknown
4:35 AM 32.0 °F 23.0 °F 28.4 °F 87% 29.94 in 10.0 mi ESE 11.5 mph - N/A   Unknown
4:55 AM 32.0 °F 23.6 °F 28.4 °F 87% 29.93 in 10.0 mi ESE 10.4 mph - N/A   Unknown
5:15 AM 32.0 °F 22.5 °F 28.4 °F 87% 29.93 in 10.0 mi ESE 12.7 mph - N/A   Unknown
5:35 AM 32.0 °F 22.1 °F 28.4 °F 87% 29.91 in 10.0 mi ESE 13.8 mph - N/A   Unknown
5:55 AM 32.0 °F 21.6 °F 28.4 °F 87% 29.90 in 10.0 mi ESE 15.0 mph - N/A   Unknown
6:15 AM 33.8 °F 23.2 °F 28.4 °F 81% 29.88 in 10.0 mi ESE 17.3 mph 21.9 mph N/A   Unknown
6:35 AM 33.8 °F 23.5 °F 28.4 °F 81% 29.88 in 10.0 mi SE 16.1 mph - N/A   Unknown
6:55 AM 35.6 °F 25.5 °F 28.4 °F 75% 29.87 in 10.0 mi SE 17.3 mph 21.9 mph N/A   Unknown
7:15 AM 35.6 °F 25.5 °F 28.4 °F 75% 29.85 in 10.0 mi SE 17.3 mph - N/A   Unknown
7:35 AM 35.6 °F 26.2 °F 28.4 °F 75% 29.84 in 10.0 mi SE 15.0 mph - N/A   Unknown
7:55 AM 35.6 °F 25.9 °F 28.4 °F 75% 29.83 in 10.0 mi SE 16.1 mph - N/A   Unknown
8:15 AM 35.6 °F 26.2 °F 28.4 °F 75% 29.83 in 10.0 mi ESE 15.0 mph - N/A   Unknown
8:35 AM 35.6 °F 26.2 °F 28.4 °F 75% 29.81 in 10.0 mi ESE 15.0 mph 20.7 mph N/A   Unknown
8:55 AM 37.4 °F 28.5 °F 28.4 °F 70% 29.81 in 10.0 mi ESE 15.0 mph - N/A   Unknown
9:15 AM 37.4 °F 28.2 °F 28.4 °F 70% 29.80 in 10.0 mi SE 16.1 mph - N/A   Unknown
9:35 AM 37.4 °F 28.2 °F 28.4 °F 70% 29.79 in 10.0 mi SE 16.1 mph 20.7 mph N/A   Unknown
9:55 AM 37.4 °F 30.8 °F 30.2 °F 75% 29.79 in 10.0 mi SE 9.2 mph 16.1 mph N/A   Unknown
10:15 AM 39.2 °F 32.0 °F 30.2 °F 70% 29.78 in 10.0 mi SE 11.5 mph - N/A   Unknown
10:35 AM 39.2 °F 30.5 °F 32.0 °F 75% 29.76 in 10.0 mi SE 16.1 mph - N/A   Unknown
10:55 AM 41.0 °F 33.1 °F 32.0 °F 70% 29.74 in 10.0 mi SE 15.0 mph - N/A   Unknown
11:15 AM 42.8 °F 33.8 °F 32.0 °F 66% 29.73 in 10.0 mi SE 21.9 mph 27.6 mph N/A   Unknown
11:35 AM 42.8 °F 34.3 °F 32.0 °F 66% 29.73 in 10.0 mi SE 19.6 mph 27.6 mph N/A   Unknown
11:55 AM 42.8 °F 34.0 °F 32.0 °F 66% 29.71 in 10.0 mi SE 20.7 mph 26.5 mph N/A   Unknown
12:15 PM 44.6 °F 36.4 °F 32.0 °F 61% 29.70 in 10.0 mi SE 20.7 mph 26.5 mph N/A   Unknown
12:35 PM 44.6 °F 36.4 °F 32.0 °F 61% 29.68 in 10.0 mi SE 20.7 mph - N/A   Unknown
12:55 PM 44.6 °F 37.2 °F 33.8 °F 66% 29.67 in 10.0 mi SE 17.3 mph 24.2 mph N/A   Unknown
1:15 PM 46.4 °F 39.0 °F 35.6 °F 66% 29.66 in 10.0 mi SE 19.6 mph - N/A   Unknown
1:35 PM 46.4 °F 39.2 °F 35.6 °F 66% 29.64 in 10.0 mi SE 18.4 mph 23.0 mph N/A   Unknown
1:55 PM 46.4 °F 39.2 °F 35.6 °F 66% 29.63 in 10.0 mi SE 18.4 mph 24.2 mph N/A   Unknown
2:15 PM 48.2 °F - 35.6 °F 62% 29.62 in 10.0 mi SE 20.7 mph - N/A   Unknown
2:35 PM 50.0 °F - 35.6 °F 58% 29.59 in 10.0 mi SE 24.2 mph - N/A   Unknown
2:55 PM 50.0 °F - 35.6 °F 58% 29.58 in 10.0 mi SE 20.7 mph 26.5 mph N/A   Unknown
3:15 PM 50.0 °F - 37.4 °F 62% 29.57 in 10.0 mi SE 20.7 mph 26.5 mph N/A   Unknown
3:35 PM 50.0 °F - 37.4 °F 62% 29.56 in 10.0 mi SE 19.6 mph - N/A   Unknown
3:55 PM 50.0 °F - 37.4 °F 62% 29.56 in 10.0 mi SE 16.1 mph 24.2 mph N/A   Unknown
4:15 PM 50.0 °F - 37.4 °F 62% 29.55 in 10.0 mi SE 15.0 mph 19.6 mph N/A   Unknown
4:35 PM 50.0 °F - 37.4 °F 62% 29.54 in 10.0 mi ESE 11.5 mph - N/A   Unknown
4:55 PM 50.0 °F - 37.4 °F 62% 29.52 in 10.0 mi ESE 15.0 mph - N/A   Unknown
5:15 PM 50.0 °F - 39.2 °F 66% 29.51 in 9.0 mi ESE 15.0 mph - N/A   Unknown
5:35 PM 51.8 °F - 39.2 °F 62% 29.50 in 10.0 mi ESE 16.1 mph 21.9 mph N/A   Unknown
5:55 PM 50.0 °F - 39.2 °F 66% 29.49 in 10.0 mi ESE 16.1 mph 21.9 mph N/A   Unknown
6:15 PM 50.0 °F - 39.2 °F 66% 29.48 in 9.0 mi ESE 11.5 mph - N/A   Unknown
6:35 PM 50.0 °F - 39.2 °F 66% 29.48 in 10.0 mi ESE 11.5 mph - N/A   Unknown
6:55 PM 50.0 °F - 39.2 °F 66% 29.49 in 10.0 mi East 9.2 mph - N/A   Unknown
7:15 PM 48.2 °F - 39.2 °F 71% 29.48 in 10.0 mi ESE 9.2 mph - N/A   Unknown
7:35 PM 48.2 °F - 39.2 °F 71% 29.49 in 10.0 mi ESE 6.9 mph - N/A   Unknown
7:55 PM 50.0 °F - 39.2 °F 66% 29.48 in 10.0 mi SE 13.8 mph - N/A   Unknown
8:15 PM 48.2 °F - 39.2 °F 71% 29.47 in 10.0 mi East 8.1 mph - N/A   Unknown
8:35 PM 46.4 °F 41.5 °F 39.2 °F 76% 29.47 in 10.0 mi ENE 10.4 mph - N/A   Unknown
8:55 PM 44.6 °F 40.2 °F 39.2 °F 81% 29.47 in 10.0 mi East 8.1 mph - N/A   Unknown
9:15 PM 44.6 °F 39.2 °F 39.2 °F 81% 29.48 in 10.0 mi ENE 10.4 mph - N/A   Unknown
9:35 PM 44.6 °F 39.2 °F 39.2 °F 81% 29.47 in 10.0 mi ENE 10.4 mph - N/A   Unknown
9:55 PM 44.6 °F 39.7 °F 39.2 °F 81% 29.47 in 10.0 mi ENE 9.2 mph - N/A   Unknown
10:15 PM 44.6 °F 38.1 °F 39.2 °F 81% 29.47 in 10.0 mi East 13.8 mph - N/A Thunderstorm Unknown
10:35 PM 44.6 °F 38.4 °F 39.2 °F 81% 29.45 in 10.0 mi ENE 12.7 mph - N/A Thunderstorm Unknown
10:55 PM 44.6 °F 38.1 °F 39.2 °F 81% 29.44 in 10.0 mi East 13.8 mph - N/A Thunderstorm Unknown
11:15 PM 44.6 °F 38.4 °F 39.2 °F 81% 29.43 in 10.0 mi ENE 12.7 mph - N/A Thunderstorm Unknown
11:35 PM 44.6 °F 38.8 °F 39.2 °F 81% 29.43 in 10.0 mi East 11.5 mph - N/A   Unknown
11:55 PM 44.6 °F 38.8 °F 39.2 °F 81% 29.43 in 10.0 mi East 11.5 mph - N/A Thunderstorm Unknown